TimeEDT,TemperatureF,Dew PointF,Humidity,Sea Level PressureIn,VisibilityMPH,Wind Direction,Wind SpeedMPH,Gust SpeedMPH,PrecipitationIn,Events,Conditions,WindDirDegrees,DateUTC
12:53 AM,54.0,54.0,100,30.13,9.0,Calm,Calm,-,N/A,,Clear,0,2013-07-12 04:53:00
12:58 AM,53.6,53.6,100,30.13,1.5,Calm,Calm,-,N/A,,Clear,0,2013-07-12 04:58:00
1:01 AM,53.6,53.6,100,30.13,0.8,Calm,Calm,-,N/A,,Clear,0,2013-07-12 05:01:00
1:09 AM,51.8,51.8,100,30.13,1.2,East,3.5,-,N/A,,Clear,90,2013-07-12 05:09:00
1:14 AM,51.8,51.8,100,30.13,0.8,Calm,Calm,-,N/A,,Clear,0,2013-07-12 05:14:00
1:17 AM,51.8,51.8,100,30.13,1.0,Calm,Calm,-,N/A,,Mist,0,2013-07-12 05:17:00
1:24 AM,51.8,51.8,100,30.13,0.5,East,3.5,-,N/A,Fog,Fog,100,2013-07-12 05:24:00
1:39 AM,51.8,50.0,94,30.14,1.2,Calm,Calm,-,N/A,,Partly Cloudy,0,2013-07-12 05:39:00
1:53 AM,52.0,51.1,97,30.14,2.5,Calm,Calm,-,N/A,,Partly Cloudy,0,2013-07-12 05:53:00
2:00 AM,50.0,50.0,100,30.14,6.0,Calm,Calm,-,N/A,,Clear,0,2013-07-12 06:00:00
2:53 AM,50.0,50.0,100,30.14,10.0,Calm,Calm,-,N/A,,Clear,0,2013-07-12 06:53:00
2:57 AM,48.2,48.2,100,30.14,1.2,Calm,Calm,-,N/A,,Clear,0,2013-07-12 06:57:00
3:04 AM,48.2,48.2,100,30.14,1.0,Calm,Calm,-,N/A,,Clear,0,2013-07-12 07:04:00
3:06 AM,48.2,48.2,100,30.14,1.8,Calm,Calm,-,N/A,,Clear,0,2013-07-12 07:06:00
3:13 AM,48.2,48.2,100,30.15,2.5,Calm,Calm,-,N/A,,Clear,0,2013-07-12 07:13:00
3:17 AM,48.2,48.2,100,30.15,1.5,Calm,Calm,-,N/A,,Clear,0,2013-07-12 07:17:00
3:20 AM,48.2,48.2,100,30.15,0.8,Calm,Calm,-,N/A,,Clear,0,2013-07-12 07:20:00
3:36 AM,46.4,46.4,100,30.15,0.2,East,3.5,-,N/A,Fog,Fog,90,2013-07-12 07:36:00
3:49 AM,46.4,46.4,100,30.16,1.2,East,3.5,-,N/A,,Mostly Cloudy,80,2013-07-12 07:49:00
3:53 AM,48.0,46.9,96,30.16,2.5,Calm,Calm,-,N/A,,Mostly Cloudy,0,2013-07-12 07:53:00
4:01 AM,46.4,46.4,100,30.16,10.0,Calm,Calm,-,N/A,,Mostly Cloudy,0,2013-07-12 08:01:00
4:09 AM,46.4,46.4,100,30.16,10.0,Calm,Calm,-,N/A,,Scattered Clouds,0,2013-07-12 08:09:00
4:15 AM,46.4,44.6,93,30.16,1.8,Calm,Calm,-,N/A,,Partly Cloudy,0,2013-07-12 08:15:00
4:19 AM,46.4,44.6,93,30.16,1.0,Calm,Calm,-,N/A,,Mist,0,2013-07-12 08:19:00
4:23 AM,46.4,46.4,100,30.17,1.2,Calm,Calm,-,N/A,,Clear,0,2013-07-12 08:23:00
4:27 AM,46.4,46.4,100,30.17,3.0,Calm,Calm,-,N/A,,Clear,0,2013-07-12 08:27:00
4:42 AM,46.4,46.4,100,30.18,2.5,Calm,Calm,-,N/A,,Clear,0,2013-07-12 08:42:00
4:51 AM,44.6,44.6,100,30.17,8.0,Calm,Calm,-,N/A,,Clear,0,2013-07-12 08:51:00
4:53 AM,45.0,44.1,97,30.18,6.0,Calm,Calm,-,N/A,,Clear,0,2013-07-12 08:53:00
5:15 AM,46.4,44.6,93,30.17,1.8,East,3.5,-,N/A,,Clear,100,2013-07-12 09:15:00
5:17 AM,44.6,44.6,100,30.17,1.0,East,3.5,-,N/A,,Clear,100,2013-07-12 09:17:00
5:20 AM,44.6,44.6,100,30.17,0.8,East,3.5,-,N/A,,Mist,90,2013-07-12 09:20:00
5:35 AM,44.6,44.6,100,30.17,0.8,East,4.6,-,N/A,,Clear,80,2013-07-12 09:35:00
5:39 AM,44.6,44.6,100,30.17,1.0,East,3.5,-,N/A,,Mist,90,2013-07-12 09:39:00
5:44 AM,44.6,44.6,100,30.17,1.8,East,3.5,-,N/A,,Partly Cloudy,80,2013-07-12 09:44:00
5:47 AM,44.6,44.6,100,30.17,4.0,East,3.5,-,N/A,,Scattered Clouds,90,2013-07-12 09:47:00
5:53 AM,44.1,44.1,100,30.18,10.0,ENE,3.5,-,N/A,,Scattered Clouds,70,2013-07-12 09:53:00
6:20 AM,44.6,44.6,100,30.18,10.0,Calm,Calm,-,N/A,,Mostly Cloudy,0,2013-07-12 10:20:00
6:37 AM,44.6,44.6,100,30.20,1.8,Calm,Calm,-,N/A,,Overcast,0,2013-07-12 10:37:00
6:39 AM,44.6,44.6,100,30.20,1.0,Calm,Calm,-,N/A,,Mist,0,2013-07-12 10:39:00
6:53 AM,45.0,45.0,100,30.20,1.0,Calm,Calm,-,N/A,,Mist,0,2013-07-12 10:53:00
7:05 AM,46.4,46.4,100,30.20,2.0,Calm,Calm,-,N/A,,Mostly Cloudy,0,2013-07-12 11:05:00
7:11 AM,48.2,46.4,93,30.20,6.0,Calm,Calm,-,N/A,,Scattered Clouds,0,2013-07-12 11:11:00
7:53 AM,52.0,52.0,100,30.21,10.0,Calm,Calm,-,N/A,,Clear,0,2013-07-12 11:53:00
8:53 AM,62.1,54.0,75,30.21,10.0,ESE,4.6,-,N/A,,Clear,120,2013-07-12 12:53:00
9:53 AM,66.0,53.1,63,30.21,10.0,Variable,3.5,-,N/A,,Clear,0,2013-07-12 13:53:00
10:53 AM,71.1,54.0,55,30.21,10.0,WNW,5.8,-,N/A,,Clear,290,2013-07-12 14:53:00
11:53 AM,72.0,54.0,53,30.20,10.0,WSW,4.6,-,N/A,,Clear,240,2013-07-12 15:53:00
12:53 PM,75.9,55.0,48,30.19,10.0,WNW,6.9,-,N/A,,Clear,290,2013-07-12 16:53:00
1:53 PM,79.0,52.0,39,30.18,10.0,West,4.6,-,N/A,,Clear,280,2013-07-12 17:53:00
2:53 PM,80.1,51.1,36,30.17,10.0,West,8.1,-,N/A,,Clear,270,2013-07-12 18:53:00
3:53 PM,80.1,48.0,32,30.16,10.0,West,5.8,-,N/A,,Clear,270,2013-07-12 19:53:00
4:53 PM,81.0,46.9,30,30.15,10.0,Variable,3.5,-,N/A,,Clear,0,2013-07-12 20:53:00
5:53 PM,80.1,50.0,35,30.16,10.0,SSE,6.9,-,N/A,,Clear,150,2013-07-12 21:53:00
6:53 PM,80.1,51.1,36,30.15,10.0,South,6.9,-,N/A,,Clear,180,2013-07-12 22:53:00
7:53 PM,75.9,57.9,54,30.15,10.0,SE,8.1,-,N/A,,Clear,140,2013-07-12 23:53:00
8:53 PM,71.1,55.9,59,30.15,10.0,SE,6.9,-,N/A,,Clear,140,2013-07-13 00:53:00
9:53 PM,66.0,53.1,63,30.17,10.0,SSE,3.5,-,N/A,,Clear,150,2013-07-13 01:53:00
10:53 PM,60.1,54.0,80,30.17,10.0,SE,4.6,-,N/A,,Clear,130,2013-07-13 02:53:00
11:53 PM,57.0,52.0,83,30.17,10.0,ESE,4.6,-,N/A,,Clear,120,2013-07-13 03:53:00